Regional Weather Roundup
Issued by NWS

Home | Current Version | Previous Version | Graphics & Text | Print | Product List | Glossary On
Versions: 1 2 3 4 5 6 7 8 9 10 11 12 13 14 15 16 17 18 19 20 21 22 23 24 25 26 27 28 29 30 31 32 33 34 35 36 37 38 39 40 41 42 43 44 45 46 47 48 49 50
000
ASUS44 KMEG 200410
RWRTN
TENNESSEE HOURLY STATE WEATHER ROUNDUP
NATIONAL WEATHER SERVICE MEMPHIS TN
1100 PM CDT TUE AUG 19 2014

TNZ002-004-019-021-049-052-054-088>092-200500-
WEST TENNESSEE

CITY           SKY/WX    TMP DP  RH WIND       PRES   REMARKS
MEMPHIS INTL   CLEAR     84  76  76 SW8       29.90S HX  93
NWS MEMPHIS      N/A     84 N/A N/A MISG        N/A
JACKSON        CLEAR     77  72  84 S6        29.89S
DYERSBURG      CLEAR     79  66  65 CALM      29.87F
UNION CITY     CLEAR     75  73  94 S3        29.86S
PARIS          CLEAR     72  70  94 CALM      29.89S
HUNTINGDON     CLEAR     75  72  91 CALM      29.88F
LEXINGTON      CLEAR     75  72  88 CALM      29.89S
SAVANNAH       CLEAR     75  75 100 CALM      29.92S
$$

TNZ008-025-027-028-033-062-065-066-200500-
NORTH MIDDLE TENNESSEE

CITY           SKY/WX    TMP DP  RH WIND       PRES   REMARKS
NASHVILLE      CLEAR     78  73  84 CALM      29.90R
PORTLAND       MOCLDY    75  72  88 S6        29.89F
CLARKSVILLE    CLEAR     79  71  76 W3        29.87F
SMYRNA         CLEAR     78  73  84 S5        29.91R
MURFREESBORO   CLEAR     79  73  81 S5        29.90R
COOKEVILLE     CLEAR     72  72 100 CALM      29.93R
GALLATIN       CLEAR     76  74  93 CALM      29.90S
CROSSVILLE     CLEAR     73  67  81 CALM      29.98F
$$

TNZ061-075-076-078-094-096-097-200500-
SOUTH MIDDLE TENNESSEE

CITY           SKY/WX    TMP DP  RH WIND       PRES   REMARKS
LEWISBURG      CLEAR     78  72  82 CALM      29.92R
FAYETTEVILLE   CLEAR     75  72  88 CALM      29.96R
TULLAHOMA      CLEAR     73  70  88 CALM      29.96R
WINCHESTER     CLEAR     73  72  94 CALM      29.96R
MCMINNVILLE    CLEAR     73  73 100 CALM      29.95R
COLUMBIA       CLEAR     77  75  94 SW6       29.91S
SHELBYVILLE    CLEAR     75  73  94 CALM      29.94R
$$

TNZ017-018-042-046-047-200500-
NORTHEAST TENNESSEE

CITY           SKY/WX    TMP DP  RH WIND       PRES   REMARKS
TRI CITIES     CLEAR     68  65  90 NE3       29.97R
ELIZABETHTON   PTCLDY    66  64  94 CALM      29.99R
$$

TNZ012-013-036-069-073-074-200500-
CENTRAL EAST TENNESSEE

CITY           SKY/WX    TMP DP  RH WIND       PRES   REMARKS
KNOXVILLE      CLEAR     73  71  93 CALM      29.93S
OAK RIDGE      CLEAR     72  69  90 CALM      29.95S
GATLINBURG     CLEAR     70  66  88 CALM      29.94S
MORRISTOWN     CLEAR     70  70 100 CALM      29.96F
$$

TNZ083-085-099-200500-
SOUTHEAST TENNESSEE

CITY           SKY/WX    TMP DP  RH WIND       PRES   REMARKS
CHATTANOOGA    CLEAR     78  71  79 CALM      29.95R
$$

SKY/WX REPORTED AS FAIR MEANS FEW OR NO CLOUDS BELOW
12 THOUSAND FEET.




USA.gov is the U.S. government's official web portal to all federal, state and local government web resources and services.